When you browse on this site, cookies collect data to enhance your experience and personalize the content and advertising you see.
Visit our Privacy Policy to learn more. By continuing to use the site, you agree to this use of cookies and data.
  • In Romania
  • List of Countries
  • For 7 days
  • Water Temperature
  • Satellite Maps
  • Weather Map
  • Weather Widgets
  • user-avatar
    Login

    Hourly Weather Pecs

    Today, 20 April, Saturday

    Time Temperature Precipitation Wind Pressure Humidity
    00:00 +10°C° 0 mm 2 mps 752 mmHg 63%
    01:00 +9°C° 0 mm 2 mps 752 mmHg 61%
    02:00 +9°C° 0 mm 2 mps 752 mmHg 61%
    03:00 +8°C° 0 mm 2 mps 752 mmHg 61%
    04:00 +8°C° 0 mm 2 mps 752 mmHg 62%
    05:00 +9°C° 0 mm 2 mps 752 mmHg 61%
    06:00 +10°C° 0 mm 2 mps 753 mmHg 60%
    07:00 +11°C° 0 mm 3 mps 753 mmHg 59%
    08:00 +12°C° 0 mm 3 mps 753 mmHg 53%
    09:00 +14°C° 0 mm 3 mps 753 mmHg 47%
    10:00 +15°C° 0 mm 4 mps 753 mmHg 42%
    11:00 +17°C° 0 mm 4 mps 753 mmHg 40%
    12:00 +18°C° 0 mm 4 mps 753 mmHg 38%
    13:00 +19°C° 0 mm 3 mps 752 mmHg 36%
    14:00 +19°C° 0 mm 3 mps 752 mmHg 36%
    15:00 +18°C° 0 mm 3 mps 752 mmHg 37%
    16:00 +18°C° 0 mm 3 mps 751 mmHg 37%
    17:00 +16°C° 0 mm 2 mps 751 mmHg 42%
    18:00 +15°C° 0 mm 1 mps 751 mmHg 47%
    19:00 +13°C° 0 mm 1 mps 751 mmHg 52%
    20:00 +12°C° 0 mm 1 mps 751 mmHg 53%
    21:00 +11°C° 0 mm 1 mps 751 mmHg 54%
    22:00 +11°C° 0 mm 1 mps 751 mmHg 55%
    23:00 +10°C° 0 mm 1 mps 751 mmHg 56%

    Tomorrow, 21 April, Sunday

    Time Temperature Precipitation Wind Pressure Humidity
    00:00 +10°C° 0 mm 1 mps 750 mmHg 57%
    01:00 +9°C° 0 mm 1 mps 750 mmHg 59%
    02:00 +9°C° 0 mm 1 mps 750 mmHg 60%
    03:00 +9°C° 0 mm 1 mps 750 mmHg 61%
    04:00 +8°C° 0 mm 1 mps 749 mmHg 62%
    05:00 +9°C° 0 mm 2 mps 749 mmHg 62%
    06:00 +10°C° 0 mm 2 mps 749 mmHg 61%
    07:00 +12°C° 0 mm 2 mps 749 mmHg 61%
    08:00 +14°C° 0 mm 2 mps 749 mmHg 55%
    09:00 +16°C° 0 mm 2 mps 749 mmHg 50%
    10:00 +18°C° 0 mm 2 mps 749 mmHg 44%
    11:00 +19°C° 0 mm 2 mps 748 mmHg 41%
    12:00 +19°C° 0 mm 2 mps 748 mmHg 38%
    13:00 +20°C° 0 mm 2 mps 747 mmHg 35%
    14:00 +20°C° 0 mm 2 mps 747 mmHg 35%
    15:00 +20°C° 0 mm 2 mps 746 mmHg 36%
    16:00 +20°C° 0 mm 2 mps 746 mmHg 36%
    17:00 +18°C° 0 mm 2 mps 745 mmHg 41%
    18:00 +16°C° 0 mm 2 mps 745 mmHg 46%
    19:00 +14°C° 0 mm 1 mps 745 mmHg 51%
    20:00 +14°C° 0 mm 1 mps 745 mmHg 52%
    21:00 +13°C° 0 mm 1 mps 745 mmHg 54%
    22:00 +12°C° 0 mm 1 mps 745 mmHg 56%
    23:00 +12°C° 0 mm 1 mps 745 mmHg 58%

    Day after tomorrow, 22 April, Monday

    Time Temperature Precipitation Wind Pressure Humidity
    00:00 +11°C° 0 mm 1 mps 745 mmHg 60%
    01:00 +10°C° 0 mm 1 mps 744 mmHg 62%
    02:00 +10°C° 0 mm 1 mps 744 mmHg 63%
    03:00 +9°C° 0 mm 0 mps 744 mmHg 64%
    04:00 +8°C° 0 mm 0 mps 743 mmHg 66%
    05:00 +11°C° 0 mm 1 mps 743 mmHg 65%
    06:00 +12°C° 0 mm 1 mps 743 mmHg 63%
    07:00 +13°C° 0 mm 1 mps 743 mmHg 62%
    08:00 +14°C° 0 mm 1 mps 743 mmHg 59%
    09:00 +15°C° 0 mm 2 mps 743 mmHg 56%
    10:00 +17°C° 0 mm 2 mps 742 mmHg 52%
    11:00 +18°C° 0 mm 3 mps 742 mmHg 48%
    12:00 +19°C° 0 mm 3 mps 742 mmHg 44%
    13:00 +21°C° 0 mm 4 mps 741 mmHg 40%
    14:00 +21°C° 0 mm 4 mps 741 mmHg 40%
    15:00 +21°C° 0 mm 4 mps 740 mmHg 41%
    16:00 +21°C° 0 mm 4 mps 740 mmHg 41%
    17:00 +19°C° 0 mm 3 mps 739 mmHg 48%
    18:00 +17°C° 0 mm 3 mps 739 mmHg 55%
    19:00 +14°C° 0 mm 3 mps 739 mmHg 62%
    20:00 +13°C° 0 mm 4 mps 739 mmHg 63%
    21:00 +13°C° 0 mm 5 mps 739 mmHg 64%
    22:00 +12°C° 0 mm 7 mps 739 mmHg 66%
    23:00 +11°C° 0.1 mm 6 mps 739 mmHg 69%

    23 April, Tuesday

    Time Temperature Precipitation Wind Pressure Humidity
    00:00 +11°C° 0.1 mm 6 mps 739 mmHg 72%
    01:00 +11°C° 0.1 mm 6 mps 739 mmHg 75%
    02:00 +10°C° 1 mm 6 mps 739 mmHg 81%
    03:00 +10°C° 1 mm 7 mps 738 mmHg 86%
    04:00 +9°C° 1 mm 7 mps 738 mmHg 91%
    05:00 +9°C° 0.9 mm 8 mps 738 mmHg 89%
    06:00 +9°C° 0.9 mm 8 mps 738 mmHg 88%
    07:00 +8°C° 0.9 mm 9 mps 738 mmHg 86%
    08:00 +10°C° 0.1 mm 9 mps 738 mmHg 83%
    09:00 +11°C° 0.1 mm 8 mps 738 mmHg 81%
    10:00 +12°C° 0.1 mm 8 mps 738 mmHg 78%
    11:00 +15°C° 0.2 mm 8 mps 738 mmHg 75%
    12:00 +16°C° 0.2 mm 8 mps 738 mmHg 71%
    13:00 +17°C° 0.2 mm 7 mps 738 mmHg 68%
    14:00 +18°C° 0.3 mm 7 mps 738 mmHg 68%
    15:00 +19°C° 0.3 mm 6 mps 738 mmHg 68%
    16:00 +19°C° 0.3 mm 5 mps 738 mmHg 68%
    17:00 +17°C° 0.9 mm 5 mps 738 mmHg 72%
    18:00 +17°C° 0.9 mm 4 mps 738 mmHg 76%
    19:00 +15°C° 0.9 mm 4 mps 739 mmHg 81%
    20:00 +14°C° 0.7 mm 4 mps 739 mmHg 83%
    21:00 +13°C° 0.7 mm 4 mps 740 mmHg 84%
    22:00 +13°C° 0.7 mm 5 mps 740 mmHg 86%
    23:00 +12°C° 0.2 mm 5 mps 741 mmHg 87%

    24 April, Wednesday

    Time Temperature Precipitation Wind Pressure Humidity
    00:00 +12°C° 0.2 mm 5 mps 741 mmHg 88%
    01:00 +12°C° 0.2 mm 5 mps 741 mmHg 89%
    02:00 +11°C° 0 mm 4 mps 741 mmHg 90%
    03:00 +11°C° 0 mm 4 mps 741 mmHg 90%
    04:00 +11°C° 0 mm 4 mps 742 mmHg 90%
    05:00 +12°C° 0 mm 4 mps 742 mmHg 88%
    06:00 +12°C° 0 mm 4 mps 742 mmHg 86%
    07:00 +13°C° 0 mm 5 mps 743 mmHg 84%
    08:00 +15°C° 0 mm 5 mps 743 mmHg 77%
    09:00 +17°C° 0 mm 5 mps 743 mmHg 70%
    10:00 +20°C° 0 mm 5 mps 744 mmHg 64%
    11:00 +21°C° 0.3 mm 5 mps 744 mmHg 62%
    12:00 +22°C° 0.3 mm 5 mps 743 mmHg 60%
    13:00 +23°C° 0.3 mm 5 mps 743 mmHg 58%
    14:00 +23°C° 0.8 mm 4 mps 743 mmHg 60%
    15:00 +22°C° 0.8 mm 4 mps 743 mmHg 62%
    16:00 +22°C° 0.8 mm 3 mps 743 mmHg 64%
    17:00 +21°C° 0.8 mm 3 mps 743 mmHg 70%
    18:00 +19°C° 0.8 mm 3 mps 743 mmHg 77%
    19:00 +17°C° 0.8 mm 3 mps 743 mmHg 84%
    20:00 +16°C° 0.1 mm 3 mps 744 mmHg 85%
    21:00 +14°C° 0.1 mm 3 mps 744 mmHg 87%
    22:00 +14°C° 0.1 mm 3 mps 745 mmHg 89%
    23:00 +13°C° 0 mm 3 mps 745 mmHg 90%

    25 April, Thursday

    Time Temperature Precipitation Wind Pressure Humidity
    00:00 +13°C° 0 mm 2 mps 744 mmHg 92%
    01:00 +12°C° 0 mm 2 mps 744 mmHg 93%
    02:00 +12°C° 0 mm 2 mps 744 mmHg 93%
    03:00 +12°C° 0 mm 2 mps 744 mmHg 94%
    04:00 +12°C° 0 mm 2 mps 744 mmHg 95%
    05:00 +13°C° 0 mm 2 mps 745 mmHg 93%
    06:00 +13°C° 0 mm 3 mps 745 mmHg 90%
    07:00 +14°C° 0 mm 3 mps 745 mmHg 87%
    08:00 +17°C° 0 mm 3 mps 745 mmHg 82%
    09:00 +18°C° 0 mm 4 mps 745 mmHg 76%
    10:00 +20°C° 0 mm 4 mps 744 mmHg 70%
    11:00 +21°C° 0 mm 4 mps 744 mmHg 67%
    12:00 +22°C° 0 mm 5 mps 743 mmHg 63%
    13:00 +25°C° 0 mm 5 mps 743 mmHg 59%
    14:00 +25°C° 0 mm 5 mps 742 mmHg 59%
    15:00 +25°C° 0 mm 5 mps 742 mmHg 59%
    16:00 +25°C° 0 mm 5 mps 741 mmHg 59%
    17:00 +22°C° 0 mm 5 mps 741 mmHg 64%
    18:00 +21°C° 0 mm 5 mps 741 mmHg 70%
    19:00 +19°C° 0 mm 5 mps 740 mmHg 75%
    20:00 +17°C° 0 mm 5 mps 740 mmHg 77%
    21:00 +16°C° 0 mm 5 mps 740 mmHg 78%
    22:00 +15°C° 0 mm 5 mps 740 mmHg 79%
    23:00 +15°C° 0 mm 5 mps 739 mmHg 81%
    Show more